Location: Alsip
(41.6689°N, 87.7387°W)
Time: 13:45:51
(UTC+00:00)

Cosmos 2322 Rocket - Pass Details

Date: 14 July 2020
Orbit: 832 x 851 km, 71.0° (Epoch: 04 August)

Event Time Altitude Azimuth Distance (km) Brightness Sun altitude
Rises 09:33:05 0° 338° (NNW) 3,406 5.6 -9.4°
Reaches altitude 10° 09:35:34 10° 341° (NNW) 2,470 4.9 -9.1°
Maximum altitude 09:41:12 66° 64° (ENE) 919 2.7 -8.2°
Drops below altitude 10° 09:46:50 10° 147° (SSE) 2,466 4.6 -7.4°
Sets 09:49:18 0° 150° (SSE) 3,399 5.3 -7.0°
